Location: Pacheco
(37.9835°N, 122.0752°W)
Time: 14:55:10
(UTC+00:00)

Daily predictions for brighter satellites

Satellite Brightness Start Highest point End
(mag) Time Altitude Azimuth Time Altitude Azimuth Time Altitude Azimuth
USA-17 4.5 12:02:42 10° NW 12:06:00 67° WSW 12:10:12 10° SSE
YAOGAN 6 2.4 12:03:31 10° N 12:06:43 53° WNW 12:07:11 47° WSW
H-2A R/B 3.4 12:02:24 10° NNE 12:07:04 38° E 12:11:48 10° SSE
Cosmos 1805 3.0 12:04:09 10° NNW 12:07:50 69° W 12:10:49 15° S
Cosmos 1151 Rocket 4.0 12:09:51 27° W 12:10:11 27° WNW 12:13:53 10° NNW
NOSS 2-2 (E) 4.3 12:09:56 10° NW 12:14:56 64° WSW 12:22:04 10° SSE
Cosmos 1553 Rocket 3.9 12:09:47 10° N 12:16:05 81° W 12:22:14 10° S
Cosmos 1867 4.1 12:12:15 10° NW 12:17:08 34° WSW 12:22:00 10° S
DMSP B5D2-2 4.0 12:13:04 10° S 12:18:15 80° WSW 12:23:29 10° NNW
Iridium 51 3.8 12:16:00 10° S 12:19:27 85° E 12:22:48 10° N
Cosmos 2112 Rocket 4.3 12:16:49 22° SW 12:19:58 49° WNW 12:25:10 10° N
Cosmos 1515 Rocket 3.9 12:17:09 10° S 12:21:33 67° E 12:25:58 10° NNE
Cosmos 921 Rocket 3.0 12:19:17 21° SW 12:21:55 59° WNW 12:26:09 10° N
Cosmos 1461 2.8 12:18:45 10° NW 12:22:27 48° WSW 12:26:06 10° SSE
NOSS 2-2 (D) 4.2 12:23:54 10° NW 12:28:49 66° WSW 12:35:51 10° SSE
Cosmos 1470 Rocket 3.7 12:25:12 10° N 12:29:36 81° E 12:34:01 10° S
Cosmos 2278 Rocket 2.8 12:27:13 10° NW 12:32:11 32° WSW 12:37:06 10° SSW
USA 308 2.7 12:32:13 17° SW 12:35:00 73° SE 12:38:55 10° NE
Cosmos 1939 Rocket 3.7 12:32:08 10° NNE 12:35:48 48° E 12:39:27 10° S
SL-16 R/B 4.2 12:36:05 12° W 12:36:05 12° W 12:38:17 10° WNW
IRS-1D 4.2 12:31:32 10° N 12:36:11 36° WNW 12:40:23 12° SW
Chandra Rocket (1) 3.5 12:33:51 14° SSW 12:36:12 26° SSE 12:42:19 10° ESE
CRYOSAT 2 4.4 12:38:07 10° N 12:42:56 62° W 12:47:43 10° SSW
Cosmos 1666 Rocket 4.3 12:39:06 10° NNW 12:43:05 33° W 12:47:02 10° SSW
Cosmos 1048 Rocket 4.1 12:39:21 10° SSW 12:44:40 84° ESE 12:49:59 10° NNE
ATLAS 2AS CENTAUR R/B 3.0 12:37:48 11° SW 12:44:50 62° NW 12:52:00 10° NNE
YAOGAN 11 4.4 12:41:08 10° SSE 12:45:34 73° ENE 12:50:06 10° N
Cosmos 1975 3.7 12:42:22 10° NNW 12:45:38 27° W 12:48:54 10° SSW
SL-16 R/B 2.3 12:40:53 10° SW 12:46:27 61° WNW 12:52:04 10° NNE
Cosmos 1766 3.0 12:43:00 10° N 12:46:41 77° W 12:50:21 10° S
ARGOS 4.4 12:46:41 10° NNE 12:51:50 45° E 12:56:55 10° S
Cosmos 1674 2.3 12:49:00 10° S 12:52:25 80° W 12:55:52 10° N
KORONAS-FOTON 3.7 12:50:10 10° S 12:53:50 85° E 12:57:30 10° N
Cosmos 1933 Rocket 3.7 12:52:36 10° N 12:56:59 82° E 13:01:18 10° S
ARIANE 5 R/B 3.4 12:52:24 10° NNE 12:57:32 55° E 13:02:37 10° S
Cosmos 1484 Rocket 3.0 12:56:55 10° N 13:00:20 41° WNW 13:03:43 10° SW
Cosmos 1656 Rocket 4.3 12:57:11 10° NNW 13:02:34 62° ENE 13:07:54 10° SSE
Cosmos 2056 Rocket 4.0 12:57:56 10° NNW 13:02:57 40° WSW 13:07:57 10° S
Cosmos 1340 4.0 13:02:11 10° NW 13:04:30 17° W 13:06:49 10° SW
Cosmos 494 Rocket 4.5 13:03:58 10° SW 13:08:51 42° WNW 13:13:44 10° N
Cosmos 1452 Rocket 4.1 13:05:00 10° NNW 13:10:14 65° ENE 13:15:25 10° SSE
